Вернуться в каталог

COSMOS 252 DEB

АктивенLEO
NORAD 9973·DEBRIS·🇷🇺 Russia

Запущен Nov 1, 1968 с Baikonur Cosmodrome

Loading…

Ближайшие Пролёты (ближайшие 24 часа)

TLE

СвежийSource: Space-Track

Эпоха: Sep 14, 2026, 01:58 UTC

1 09973U 68097DV  26257.08233296  .00000612  00000-0  25219-3 0  9994
2 09973  62.4081 149.5211 0558771 270.0098  83.6938 13.73601430 43005

Отслеживайте COSMOS 252 DEB в реальном времени с AllMySat

Download on the App Store